sat.trackr.live / text

‹ back to catalog

STARLINK-35848

NORAD 66349 · 2025-254B

PAYLOAD ACTIVE UNKNOWN

§ Identity

Operator
Country
US
Launch date
2025-11-06
Launch site
AFWTR
Launch vehicle
Mass (kg)
RCS (m²)

Purposes: comms

External: N2YO · Heavens-Above · Gunter

§ Orbital elements

Epoch: 2026-05-24T23:12:09.842112Z

Period
94.11 min
Inclination
53.1562°
Eccentricity
0.0001062
Mean motion
15.30199060 rev/d
Perigee alt
474.5 km
Apogee alt
475.9 km
Semi-major
6,853.4 km
B*
4.5895e-4
RAAN
238.1840°
Arg perigee
86.8975°
Mean anomaly
273.2148°
Rev number
3,065

§ Raw data

STARLINK-358481 66349U 25254B   26144.96678058  .00013258  00000+0  45895-3 0  99942 66349  53.1562 238.1840 0001062  86.8975 273.2148 15.30199060 30655

JSON: /api/v1/satellites/66349 · /tle

For live sub-satellite position, see the globe view (requires WebGL).

§ Visibility from observer

Set your observer location to see the next 7 days of passes ≥ 10°. The values pass through the URL so the page stays shareable.

No JS? Fill the form by hand. The geolocation button needs JavaScript.